Home   Weather   Wels   Past weeks

Flag for Austria Past Weather in Wels, Upper Austria, Austria — Yesterday and Last 2 Weeks

Now
18 °F

Low clouds.


Feels Like: N/A
Forecast: 13 / 29 °F
Wind: N/A

Location: Linz / Hoersching-Flughafen

Current Time: Jan 24, 2017 at 12:27:16 pm

Latest Report: Jan 24, 2017 at 11:00 am


Visibility: 1 mi

Pressure: 30.42 "Hg

Humidity: 92%

Dew Point: 16 °F

Location of WelsLocation

Past Weather in Wels — Graph

°F

Wels Temperature Yesterday

Maximum temperature yesterday: 28 °F (at 3:00 pm)
Minimum temperature yesterday: 7 °F (at 8:00 am)
Average temperature yesterday: 16 °F

High & Low Weather Summary for the Past Weeks

 TemperatureHumidityPressure
High40 °F (Jan 13, 11:00 am)98% (Jan 12, 8:00 pm)30.69 "Hg (Jan 12, 8:00 pm)
Low5 °F (Jan 22, 4:00 am)55% (Jan 13, 1:00 pm)29.44 "Hg (Jan 13, 4:00 am)
Average24 °F82%30.25 "Hg
* Reported Jan 9 10:00 am — Jan 24 10:00 am, Wels, Weather by CustomWeather, © 2017

Note: Actual official high and low records may vary slightly from our data, if they occured in-between our weather recording intervals... More about our weather records

Advertising

Wels Weather History for the Previous 24 Hours

Scroll right to see more
 ConditionsComfort  
Time TempWeatherWind HumidityBarometerVisibility
10:00 am
Tue, Jan 24
18 °FLow clouds.N/A92%30.40 "Hg1 mi
9:00 am17 °FLow clouds.N/A94%30.39 "Hg1 mi
8:00 am18 °FLow clouds.3 mph95%30.38 "Hg1 mi
7:00 am18 °FLow clouds.N/A95%30.37 "Hg1 mi
6:00 am18 °FLow clouds.N/A95%30.35 "Hg1 mi
5:00 am18 °FLow clouds.N/A94%30.34 "Hg1 mi
4:00 am18 °FLow clouds.N/A91%30.34 "Hg2 mi
3:00 am19 °FLow clouds.N/A90%30.33 "Hg2 mi
2:00 am20 °FLow clouds.N/A91%30.33 "Hg2 mi
1:00 am20 °FLow clouds.N/A90%30.33 "Hg2 mi
12:00 am20 °FLow clouds.N/A90%30.33 "Hg2 mi
11:00 pm
Mon, Jan 23
20 °FLow clouds.N/A90%30.33 "Hg2 mi
10:00 pm20 °FLow clouds.N/A90%30.33 "Hg2 mi
9:00 pm17 °FLow clouds.N/A91%30.34 "Hg2 mi
8:00 pm18 °FPassing clouds.N/A88%30.33 "Hg2 mi
7:00 pm18 °FPassing clouds.N/A86%30.32 "Hg2 mi
6:00 pm21 °FClear.N/A81%30.31 "Hg3 mi
5:00 pm23 °FClear.N/A75%30.29 "Hg3 mi
4:00 pm26 °FSunny.N/A70%30.28 "Hg4 mi
3:00 pm28 °FSunny.N/A66%30.28 "Hg3 mi
2:00 pm25 °FSunny.N/A71%30.29 "Hg3 mi
1:00 pm23 °FHaze.13 mph73%30.31 "Hg2 mi
12:00 pm19 °FSunny.N/A80%30.34 "Hg2 mi
Weather by CustomWeather, © 2017

See weather overviewHow to use our weather pages